Location: T�chigga el Be�da
(16.4766°N, 9.3887°W)
Time: 09:51:01
(UTC+00:00)

Cosmos 2208 Rocket - Pass Details

Date: 27 February 2020
Orbit: 755 x 805 km, 74.0° (Epoch: 28 March)

Event Time Altitude Azimuth Distance (km) Brightness Sun altitude
Rises 18:57:21 0° 177° (S) 3,304 7.4 -4.0°
Reaches altitude 10° 18:59:53 10° 170° (S) 2,374 6.5 -4.6°
Maximum altitude 19:04:56 41° 101° (E) 1,138 4.5 -5.8°
Drops below altitude 10° 19:09:58 10° 32° (NNE) 2,361 6.2 -7.0°
Sets 19:12:28 0° 25° (NNE) 3,285 7.0 -7.6°
